SCP
0 0 0 0 0 0 0 0 0 0 0 0 0 0 0 0 0 0 0 0 0 0 0 0 0 0 1 1 1 1 1 1 0 0 1 1 1 1 0 0 0 0 0
0 0 0 0 0 0 0 0 0 0 0 0 0 0 0 0 0 0 0 0 0 0 0 0 0 0 0 1 1 1 1 1 0 0 1 1 1 0 0 0 0 0 0
0 0 0 0 0 0 0 -0 -0 -0 -0 0 0 0 0 0 0 0 0 0 0 0 0 0 0 0 0 0 1 1 1 1 1 0 1 1 1 0 0 0 0 0 0
0 0 0 0 0 0 0 0 -0 -0 -0 -0 0 0 0 0 0 0 0 0 0 0 0 0 0 0 0 0 0 1 1 1 1 1 0 1 1 1 0 0 0 0 0
0 0 0 0 0 0 0 0 0 -0 -0 -0 -0 0 0 0 -0 -0 0 0 0 0 0 0 0 0 0 0 0 0 1 1 1 1 1 1 1 1 1 0 0 0 0
0 0 0 0 0 0 0 0 0 0 0 -0 -0 -0 -0 0 -0 -0 -0 -0 -0 0 0 0 0 0 0 0 0 0 0 1 1 1 1 1 1 1 1 0 0 0 0
0 0 0 0 0 0 0 0 0 0 0 0 -0 -0 -0 -0 -0 -0 -0 -0 -0 -0 -0 0 0 0 0 0 0 0 0 1 1 1 1 1 1 1 1 0 0 0 0
0 0 0 0 0 0 0 0 0 0 0 0 -0 -0 -0 -0 -0 0 0 0 -0 0 -0 -0 -0 0 0 0 0 0 0 0 1 1 1 1 1 1 1 0 0 0 0
0 0 0 0 0 0 0 0 0 0 0 0 0 0 0 0 -0 -0 0 -0 -0 -0 -0 -0 -0 0 0 0 0 0 0 0 0 1 1 1 1 1 1 1 0 0 0
0 0 0 0 0 0 0 0 0 0 0 0 0 0 0 0 0 0 0 0 0 0 -0 -0 -0 -0 -0 0 0 0 0 0 0 0 0 1 1 1 1 1 1 0 0
0 0 0 0 0 0 0 0 0 0 0 0 0 0 0 0 0 0 0 0 0 0 0 -0 -0 -0 -0 -0 0 0 0 0 0 0 0 0 0 1 1 1 1 0 0
0 0 0 0 0 0 0 0 0 0 0 0 0 0 0 0 0 0 0 0 0 0 0 0 0 -0 -0 -0 -0 0 0 0 0 0 0 0 0 0 0 1 1 0 0
0 0 0 0 0 0 0 0 0 0 0 0 0 0 0 0 0 0 0 0 0 0 0 0 0 0 0 -0 -0 0 0 0 0 0 0 0 0 0 0 0 0 0 0
0 0 0 0 0 0 0 0 0 0 0 0 0 0 0 0 0 0 0 0 0 0 0 0 0 0 0 0 0 0 0 -0 0 0 0 0 0 0 0 0 0 0 0
0 0 0 0 0 0 0 0 0 0 0 0 0 0 0 0 0 0 0 0 0 0 0 0 0 0 0 0 0 0 0 -0 -0 0 0 0 0 0 0 1 0 0 0
0 0 0 0 0 0 0 0 0 0 0 0 0 0 0 0 0 0 1 0 0 0 0 0 0 0 0 0 0 0 0 0 -0 -0 0 0 0 0 0 0 0 0 0
0 0 0 0 0 0 0 0 0 0 0 0 0 0 0 0 0 1 0 0 0 0 0 0 0 0 0 0 0 0 0 -0 -0 -0 0 0 0 0 0 0 0 0 0
0 0 0 0 0 0 0 0 0 0 0 0 0 0 0 0 0 0 0 0 0 0 0 -0 -0 0 -0 0 0 0 0 -0 -0 -0 0 0 0 0 0 0 0 0 0
0 0 0 0 0 0 0 0 0 0 0 0 0 0 0 0 0 0 0 0 0 0 0 -0 -0 -0 -0 0 0 0 0 -0 -0 -0 -0 0 0 0 0 0 0 0 0
0 0 0 0 0 0 0 0 0 0 0 0 0 0 0 0 0 0 0 0 0 0 0 -0 -0 -0 -0 0 -0 -0 -0 -0 -0 -0 0 0 0 0 0 0 0 0 0
0 0 0 0 0 0 0 0 0 0 0 0 0 0 0 0 0 0 0 0 0 0 0 -0 -0 -0 -0 0 -0 -0 -0 -0 -0 -0 -0 0 0 0 0 0 0 0 0
0 0 0 0 0 0 0 0 0 0 0 0 0 0 0 0 0 0 0 -0 -0 -0 -0 -0 -0 -0 0 0 0 -0 -0 -0 -0 -0 0 0 0 0 0 0 0 0 0
0 0 0 0 0 0 0 0 0 0 0 0 0 0 0 0 0 0 0 0 -0 -0 -0 0 -0 -0 0 0 -0 -0 -0 -0 -0 -0 0 0 0 0 0 0 0 0 0
0 0 0 0 0 0 0 0 0 0 0 0 0 0 0 0 0 0 0 0 0 0 0 0 0 0 0 0 0 -0 -0 -0 -0 -0 0 0 0 0 0 0 0 0 0
0 0 0 0 0 0 0 0 0 0 0 0 0 0 0 0 0 -0 0 0 0 0 0 0 0 0 0 0 0 -0 -0 -0 -0 -0 -0 0 0 0 0 0 0 0 0
0 0 0 0 0 0 -0 0 0 0 0 0 0 0 0 0 0 -0 0 0 0 0 0 0 0 0 0 0 0 -0 -0 -0 -0 -0 -0 0 0 0 0 0 0 0 0
Wind_Speed_500mb
29 33 36 39 42 45 47 48 48 49 50 54 56 56 54 54 58 61 67 77 80 83 84 81 83 84 79 78 79 79 82 88 85 81 79 88 90 86 79 71 66 62 59
31 37 40 43 46 49 52 53 55 57 57 58 57 60 64 65 60 61 66 70 76 81 85 86 84 86 90 83 83 83 85 86 93 89 88 90 93 95 86 78 71 66 63
34 38 42 46 51 55 59 61 62 63 65 66 67 67 67 68 73 71 67 70 73 79 82 90 91 87 90 94 92 90 89 90 92 99 97 96 97 106 92 84 78 72 70
34 38 43 47 51 56 59 63 66 69 70 71 74 75 77 78 76 78 79 76 76 76 83 85 92 97 93 97 99 101 97 95 95 96 106 103 99 98 96 94 86 78 76
33 39 44 50 53 57 60 64 66 70 75 77 78 81 83 85 84 81 82 84 82 83 83 85 91 92 103 101 100 104 106 103 100 98 105 109 109 107 109 106 96 89 82
37 42 47 53 55 58 62 66 68 67 70 71 82 91 83 84 83 77 71 71 76 77 76 80 85 97 95 109 107 103 108 111 109 105 104 112 114 112 115 115 106 97 91
38 44 49 51 56 59 64 67 69 71 66 71 84 91 96 61 58 64 47 55 68 79 90 88 81 83 98 97 108 113 106 112 117 113 109 112 121 124 123 122 115 105 101
39 46 49 49 55 62 64 67 70 71 69 63 61 69 48 90 15 46 85 75 64 72 70 63 69 81 86 94 84 106 120 112 117 120 118 113 124 134 136 128 123 117 110
41 44 45 50 55 62 66 69 70 70 72 67 59 40 33 34 88 76 70 83 57 63 70 80 90 77 81 86 96 92 107 125 116 121 125 122 124 143 143 138 129 126 117
40 44 46 50 59 64 69 72 73 73 73 72 61 53 50 57 37 77 86 78 94 78 84 80 82 90 102 96 93 85 98 112 129 120 125 130 127 135 155 148 141 132 125
41 45 47 53 60 66 69 72 73 76 76 75 67 63 63 64 60 59 101 106 82 82 94 97 77 88 93 97 109 101 91 104 119 127 121 132 140 138 160 149 148 141 137
43 45 48 58 64 68 71 75 76 76 78 79 74 70 65 50 51 54 66 112 103 111 95 108 105 96 94 102 105 120 111 103 108 122 128 127 142 137 137 177 167 152 149
46 47 53 60 66 71 75 77 78 79 78 78 77 78 67 70 69 77 72 84 108 122 91 99 99 92 96 88 91 106 126 115 112 109 122 128 133 127 137 122 147 159 151
49 52 60 67 73 78 77 76 79 81 81 80 81 77 81 84 75 79 79 69 87 107 107 101 92 92 96 90 104 107 118 129 115 102 119 121 124 107 113 119 128 137 149
53 61 68 74 78 79 76 75 78 80 79 77 81 79 78 87 85 88 87 88 80 92 105 97 85 79 81 94 95 93 96 121 122 116 99 129 120 107 114 116 128 148 157
58 64 71 76 77 75 73 72 74 75 75 77 79 80 84 88 84 89 90 94 89 93 103 84 87 101 96 97 108 98 86 93 113 119 99 104 115 107 116 125 146 138 151
60 66 73 74 73 72 72 73 76 77 78 80 76 78 92 87 92 91 89 94 91 93 106 107 104 84 98 98 94 87 94 94 103 119 78 102 122 112 114 120 138 148 181
59 67 71 70 69 69 71 76 80 80 82 84 82 76 88 83 88 90 89 90 93 95 94 96 82 92 103 90 87 85 71 76 91 118 100 82 125 116 120 119 116 175 144
58 64 66 67 69 71 76 79 81 82 84 81 76 74 79 77 87 85 83 89 86 88 89 87 93 91 94 94 70 68 82 89 92 108 116 57 115 125 119 132 137 160 164
58 59 62 66 68 72 76 79 79 80 76 73 73 79 82 79 81 77 79 84 84 85 83 82 86 86 97 76 58 57 61 74 79 96 100 105 88 117 122 126 147 172 171
53 57 62 64 67 72 75 78 77 71 72 78 77 78 80 79 77 79 82 87 83 81 82 76 71 81 85 74 55 55 59 55 56 95 89 78 96 123 129 136 166 189 173
50 54 59 66 70 75 77 78 62 72 72 76 87 86 77 78 81 77 80 83 84 90 91 85 84 73 75 63 50 50 55 68 67 77 74 75 114 139 149 158 183 184 176
49 53 58 64 69 72 74 72 64 69 76 79 81 90 88 84 77 79 75 76 78 81 85 93 93 90 78 70 52 51 54 56 74 81 81 74 111 119 154 163 192 186 174
49 53 57 60 66 67 71 70 64 74 75 76 80 87 87 85 81 76 79 83 89 90 85 84 93 99 91 92 66 66 64 59 76 81 78 90 69 129 120 166 196 185 179
48 49 55 63 66 64 70 60 64 77 78 89 88 85 84 82 82 77 79 86 87 84 84 80 80 82 74 78 58 49 64 64 74 85 70 82 78 114 128 136 169 176 178
46 49 54 59 62 69 68 58 64 74 89 92 92 87 77 79 75 71 76 82 85 88 87 83 76 77 69 76 89 85 80 74 75 73 82 78 71 111 87 124 156 159 148
Wind_Direction_500mb
322 324 326 328 328 328 326 324 324 323 321 318 317 313 308 302 295 287 282 277 273 269 265 264 261 255 251 248 248 247 246 243 237 235 236 234 226 227 230 229 227 224 225
322 327 327 326 325 323 322 322 321 319 317 315 312 311 309 306 301 296 290 284 278 270 267 266 260 257 253 250 248 247 246 245 240 235 233 234 235 224 228 228 225 224 224
321 322 322 321 321 320 322 321 319 317 316 314 313 310 306 305 303 300 294 290 283 278 271 263 263 259 255 252 247 246 246 245 243 238 234 233 234 222 227 228 227 225 223
315 317 317 318 319 320 319 317 317 317 316 316 315 313 311 308 304 300 297 294 289 283 278 273 263 258 258 254 250 247 245 245 244 242 236 233 231 230 229 229 226 224 222
313 314 317 316 316 317 317 317 318 319 319 318 315 313 313 309 306 302 298 297 293 288 283 276 271 263 258 255 252 249 246 246 244 243 238 235 231 229 229 229 225 224 221
313 315 313 312 317 320 321 321 321 320 319 318 316 316 314 310 308 304 302 298 295 293 287 281 273 268 263 256 253 252 247 245 246 243 241 236 233 228 228 228 224 222 221
308 311 311 314 318 320 320 319 319 319 317 318 319 315 316 322 313 313 305 306 305 301 297 288 283 275 267 265 255 252 251 245 244 244 241 237 231 227 228 227 223 223 221
307 308 307 317 318 314 315 315 317 315 314 315 316 317 321 314 315 287 299 295 291 294 296 290 289 283 273 265 260 254 251 249 244 242 241 238 233 230 226 227 223 222 220
302 300 309 315 312 310 311 312 312 310 308 307 307 296 311 296 313 307 289 305 302 291 288 285 288 279 279 271 262 254 252 251 247 242 241 238 235 227 226 227 226 222 219
298 305 307 309 306 308 311 308 306 303 300 298 295 289 277 281 297 305 292 288 294 294 291 292 281 277 282 270 260 251 251 251 250 245 240 239 236 233 207 236 224 222 221
300 299 305 309 308 306 303 302 300 297 294 289 286 282 279 280 270 267 286 292 288 287 284 293 288 276 278 274 259 251 247 247 252 250 245 239 237 234 222 218 222 219 221
295 303 310 307 304 303 303 301 297 293 291 289 285 281 276 264 264 262 264 280 286 287 283 282 276 273 274 275 273 249 248 245 242 250 249 245 238 238 235 224 216 212 218
302 310 307 304 304 303 300 298 296 293 292 287 284 281 275 265 266 265 266 268 281 288 283 280 276 277 266 269 264 263 247 242 241 240 247 248 243 237 236 246 205 210 209
307 307 305 305 304 300 299 298 296 293 291 286 283 280 277 273 269 267 266 263 275 278 281 274 277 277 262 264 269 277 266 249 245 244 246 248 244 241 237 230 216 212 213
303 306 307 306 304 304 302 300 295 292 289 285 284 280 273 273 271 268 263 261 259 271 274 277 272 271 270 264 262 269 273 255 252 248 243 242 238 235 230 226 214 220 213
303 307 307 308 308 308 306 301 298 294 290 288 285 280 278 275 272 267 262 260 265 255 269 273 275 271 262 268 265 268 263 261 251 243 252 243 235 229 222 219 213 218 223
307 309 309 310 311 310 306 302 298 296 293 290 284 278 277 275 271 267 263 265 258 258 266 273 265 268 266 264 261 256 259 264 248 243 250 238 230 226 219 220 216 221 199
310 311 312 313 313 313 311 307 303 300 297 292 289 281 277 277 272 268 266 263 261 263 264 272 276 274 268 275 262 253 257 260 254 246 244 241 220 221 220 221 215 198 202
312 313 314 316 317 316 313 310 306 304 299 294 292 287 283 279 275 271 268 265 264 265 267 271 267 270 267 271 256 257 266 274 271 253 240 251 225 222 218 216 210 211 202
311 314 316 314 314 315 314 312 308 305 302 296 291 287 284 280 277 275 271 268 267 270 271 270 266 269 264 277 256 267 275 281 276 248 243 249 237 222 219 215 209 190 190
310 313 313 315 317 317 317 314 311 307 301 299 296 291 287 283 277 272 272 271 269 269 272 271 267 264 265 270 258 262 261 273 286 249 248 255 222 222 217 208 206 199 188
310 313 317 319 320 320 321 318 308 306 301 301 300 296 290 285 279 273 270 267 266 268 267 267 268 269 260 276 262 265 275 286 291 232 250 250 223 207 205 201 199 196 190
312 318 319 318 318 320 322 320 310 308 306 304 299 296 292 286 282 280 277 271 268 264 263 265 264 261 265 257 275 269 279 289 280 259 272 286 202 193 195 195 197 190 189
315 319 316 316 317 323 324 323 316 310 308 307 302 300 294 289 284 282 280 278 279 277 275 264 257 258 261 257 260 269 271 280 281 272 281 275 248 193 189 188 192 191 186
315 317 319 319 320 326 334 324 318 315 314 307 306 302 298 292 284 277 276 279 279 273 276 267 263 252 259 250 247 260 272 279 287 283 273 271 274 177 180 179 181 181 183
319 321 320 320 323 337 339 322 322 318 313 309 308 301 295 291 287 281 276 276 278 279 270 271 267 251 256 249 249 254 259 265 277 289 259 267 216 161 160 168 173 180 182
Wind_Speed_850mb
29 33 36 39 42 45 47 48 48 49 50 54 56 56 54 54 58 61 67 77 80 83 84 81 83 84 79 78 79 79 82 88 85 81 79 88 90 86 79 71 66 62 59
31 37 40 43 46 49 52 53 55 57 57 58 57 60 64 65 60 61 66 70 76 81 85 86 84 86 90 83 83 83 85 86 93 89 88 90 93 95 86 78 71 66 63
34 38 42 46 51 55 59 61 62 63 65 66 67 67 67 68 73 71 67 70 73 79 82 90 91 87 90 94 92 90 89 90 92 99 97 96 97 106 92 84 78 72 70
34 38 43 47 51 56 59 63 66 69 70 71 74 75 77 78 76 78 79 76 76 76 83 85 92 97 93 97 99 101 97 95 95 96 106 103 99 98 96 94 86 78 76
33 39 44 50 53 57 60 64 66 70 75 77 78 81 83 85 84 81 82 84 82 83 83 85 91 92 103 101 100 104 106 103 100 98 105 109 109 107 109 106 96 89 82
37 42 47 53 55 58 62 66 68 67 70 71 82 91 83 84 83 77 71 71 76 77 76 80 85 97 95 109 107 103 108 111 109 105 104 112 114 112 115 115 106 97 91
38 44 49 51 56 59 64 67 69 71 66 71 84 91 96 61 58 64 47 55 68 79 90 88 81 83 98 97 108 113 106 112 117 113 109 112 121 124 123 122 115 105 101
39 46 49 49 55 62 64 67 70 71 69 63 61 69 48 90 15 46 85 75 64 72 70 63 69 81 86 94 84 106 120 112 117 120 118 113 124 134 136 128 123 117 110
41 44 45 50 55 62 66 69 70 70 72 67 59 40 33 34 88 76 70 83 57 63 70 80 90 77 81 86 96 92 107 125 116 121 125 122 124 143 143 138 129 126 117
40 44 46 50 59 64 69 72 73 73 73 72 61 53 50 57 37 77 86 78 94 78 84 80 82 90 102 96 93 85 98 112 129 120 125 130 127 135 155 148 141 132 125
41 45 47 53 60 66 69 72 73 76 76 75 67 63 63 64 60 59 101 106 82 82 94 97 77 88 93 97 109 101 91 104 119 127 121 132 140 138 160 149 148 141 137
43 45 48 58 64 68 71 75 76 76 78 79 74 70 65 50 51 54 66 112 103 111 95 108 105 96 94 102 105 120 111 103 108 122 128 127 142 137 137 177 167 152 149
46 47 53 60 66 71 75 77 78 79 78 78 77 78 67 70 69 77 72 84 108 122 91 99 99 92 96 88 91 106 126 115 112 109 122 128 133 127 137 122 147 159 151
49 52 60 67 73 78 77 76 79 81 81 80 81 77 81 84 75 79 79 69 87 107 107 101 92 92 96 90 104 107 118 129 115 102 119 121 124 107 113 119 128 137 149
53 61 68 74 78 79 76 75 78 80 79 77 81 79 78 87 85 88 87 88 80 92 105 97 85 79 81 94 95 93 96 121 122 116 99 129 120 107 114 116 128 148 157
58 64 71 76 77 75 73 72 74 75 75 77 79 80 84 88 84 89 90 94 89 93 103 84 87 101 96 97 108 98 86 93 113 119 99 104 115 107 116 125 146 138 151
60 66 73 74 73 72 72 73 76 77 78 80 76 78 92 87 92 91 89 94 91 93 106 107 104 84 98 98 94 87 94 94 103 119 78 102 122 112 114 120 138 148 181
59 67 71 70 69 69 71 76 80 80 82 84 82 76 88 83 88 90 89 90 93 95 94 96 82 92 103 90 87 85 71 76 91 118 100 82 125 116 120 119 116 175 144
58 64 66 67 69 71 76 79 81 82 84 81 76 74 79 77 87 85 83 89 86 88 89 87 93 91 94 94 70 68 82 89 92 108 116 57 115 125 119 132 137 160 164
58 59 62 66 68 72 76 79 79 80 76 73 73 79 82 79 81 77 79 84 84 85 83 82 86 86 97 76 58 57 61 74 79 96 100 105 88 117 122 126 147 172 171
53 57 62 64 67 72 75 78 77 71 72 78 77 78 80 79 77 79 82 87 83 81 82 76 71 81 85 74 55 55 59 55 56 95 89 78 96 123 129 136 166 189 173
50 54 59 66 70 75 77 78 62 72 72 76 87 86 77 78 81 77 80 83 84 90 91 85 84 73 75 63 50 50 55 68 67 77 74 75 114 139 149 158 183 184 176
49 53 58 64 69 72 74 72 64 69 76 79 81 90 88 84 77 79 75 76 78 81 85 93 93 90 78 70 52 51 54 56 74 81 81 74 111 119 154 163 192 186 174
49 53 57 60 66 67 71 70 64 74 75 76 80 87 87 85 81 76 79 83 89 90 85 84 93 99 91 92 66 66 64 59 76 81 78 90 69 129 120 166 196 185 179
48 49 55 63 66 64 70 60 64 77 78 89 88 85 84 82 82 77 79 86 87 84 84 80 80 82 74 78 58 49 64 64 74 85 70 82 78 114 128 136 169 176 178
46 49 54 59 62 69 68 58 64 74 89 92 92 87 77 79 75 71 76 82 85 88 87 83 76 77 69 76 89 85 80 74 75 73 82 78 71 111 87 124 156 159 148
Wind_Direction_850mb
322 324 326 328 328 328 326 324 324 323 321 318 317 313 308 302 295 287 282 277 273 269 265 264 261 255 251 248 248 247 246 243 237 235 236 234 226 227 230 229 227 224 225
322 327 327 326 325 323 322 322 321 319 317 315 312 311 309 306 301 296 290 284 278 270 267 266 260 257 253 250 248 247 246 245 240 235 233 234 235 224 228 228 225 224 224
321 322 322 321 321 320 322 321 319 317 316 314 313 310 306 305 303 300 294 290 283 278 271 263 263 259 255 252 247 246 246 245 243 238 234 233 234 222 227 228 227 225 223
315 317 317 318 319 320 319 317 317 317 316 316 315 313 311 308 304 300 297 294 289 283 278 273 263 258 258 254 250 247 245 245 244 242 236 233 231 230 229 229 226 224 222
313 314 317 316 316 317 317 317 318 319 319 318 315 313 313 309 306 302 298 297 293 288 283 276 271 263 258 255 252 249 246 246 244 243 238 235 231 229 229 229 225 224 221
313 315 313 312 317 320 321 321 321 320 319 318 316 316 314 310 308 304 302 298 295 293 287 281 273 268 263 256 253 252 247 245 246 243 241 236 233 228 228 228 224 222 221
308 311 311 314 318 320 320 319 319 319 317 318 319 315 316 322 313 313 305 306 305 301 297 288 283 275 267 265 255 252 251 245 244 244 241 237 231 227 228 227 223 223 221
307 308 307 317 318 314 315 315 317 315 314 315 316 317 321 314 315 287 299 295 291 294 296 290 289 283 273 265 260 254 251 249 244 242 241 238 233 230 226 227 223 222 220
302 300 309 315 312 310 311 312 312 310 308 307 307 296 311 296 313 307 289 305 302 291 288 285 288 279 279 271 262 254 252 251 247 242 241 238 235 227 226 227 226 222 219
298 305 307 309 306 308 311 308 306 303 300 298 295 289 277 281 297 305 292 288 294 294 291 292 281 277 282 270 260 251 251 251 250 245 240 239 236 233 207 236 224 222 221
300 299 305 309 308 306 303 302 300 297 294 289 286 282 279 280 270 267 286 292 288 287 284 293 288 276 278 274 259 251 247 247 252 250 245 239 237 234 222 218 222 219 221
295 303 310 307 304 303 303 301 297 293 291 289 285 281 276 264 264 262 264 280 286 287 283 282 276 273 274 275 273 249 248 245 242 250 249 245 238 238 235 224 216 212 218
302 310 307 304 304 303 300 298 296 293 292 287 284 281 275 265 266 265 266 268 281 288 283 280 276 277 266 269 264 263 247 242 241 240 247 248 243 237 236 246 205 210 209
307 307 305 305 304 300 299 298 296 293 291 286 283 280 277 273 269 267 266 263 275 278 281 274 277 277 262 264 269 277 266 249 245 244 246 248 244 241 237 230 216 212 213
303 306 307 306 304 304 302 300 295 292 289 285 284 280 273 273 271 268 263 261 259 271 274 277 272 271 270 264 262 269 273 255 252 248 243 242 238 235 230 226 214 220 213
303 307 307 308 308 308 306 301 298 294 290 288 285 280 278 275 272 267 262 260 265 255 269 273 275 271 262 268 265 268 263 261 251 243 252 243 235 229 222 219 213 218 223
307 309 309 310 311 310 306 302 298 296 293 290 284 278 277 275 271 267 263 265 258 258 266 273 265 268 266 264 261 256 259 264 248 243 250 238 230 226 219 220 216 221 199
310 311 312 313 313 313 311 307 303 300 297 292 289 281 277 277 272 268 266 263 261 263 264 272 276 274 268 275 262 253 257 260 254 246 244 241 220 221 220 221 215 198 202
312 313 314 316 317 316 313 310 306 304 299 294 292 287 283 279 275 271 268 265 264 265 267 271 267 270 267 271 256 257 266 274 271 253 240 251 225 222 218 216 210 211 202
311 314 316 314 314 315 314 312 308 305 302 296 291 287 284 280 277 275 271 268 267 270 271 270 266 269 264 277 256 267 275 281 276 248 243 249 237 222 219 215 209 190 190
310 313 313 315 317 317 317 314 311 307 301 299 296 291 287 283 277 272 272 271 269 269 272 271 267 264 265 270 258 262 261 273 286 249 248 255 222 222 217 208 206 199 188
310 313 317 319 320 320 321 318 308 306 301 301 300 296 290 285 279 273 270 267 266 268 267 267 268 269 260 276 262 265 275 286 291 232 250 250 223 207 205 201 199 196 190
312 318 319 318 318 320 322 320 310 308 306 304 299 296 292 286 282 280 277 271 268 264 263 265 264 261 265 257 275 269 279 289 280 259 272 286 202 193 195 195 197 190 189
315 319 316 316 317 323 324 323 316 310 308 307 302 300 294 289 284 282 280 278 279 277 275 264 257 258 261 257 260 269 271 280 281 272 281 275 248 193 189 188 192 191 186
315 317 319 319 320 326 334 324 318 315 314 307 306 302 298 292 284 277 276 279 279 273 276 267 263 252 259 250 247 260 272 279 287 283 273 271 274 177 180 179 181 181 183
319 321 320 320 323 337 339 322 322 318 313 309 308 301 295 291 287 281 276 276 278 279 270 271 267 251 256 249 249 254 259 265 277 289 259 267 216 161 160 168 173 180 182